[[{"header":{"parameterUnit":"m.s-1","parameterCategory":1,"la1":30.2991,"la2":30.254,"lo1":-89.0895,"lo2":-89.0444,"dy":0.0017,"dx":0.0017,"nx":28,"ny":28,"refTime":"2023-09-29T09:00:00:Z","depth":0,"parameterNumber":2,"parameterNumberName":"U-component_of_WINDS"},"data":[0,0,0,0,0,0,0,0,0,0,0,0,0,0,0,0,0,0,0,0,0,0,0,0,0,0,0,0,0,0,0,0,0,0,0,0,0,0,0,0,0,0,0,0,0,0,0,0,0,0,0,0,0,0,0,0,0,0,-3.7069,-3.7068,0,-3.7054,-3.7053,-3.7053,-3.6932,-3.6929,-3.6926,-3.6923,-3.6912,-3.6915,-3.6917,0,0,0,0,0,0,0,0,0,0,0,0,0,-3.6998,-3.7,-3.7069,-3.7068,-3.7068,-3.7054,-3.7053,-3.7053,-3.6933,-3.6929,-3.6925,-3.6922,-3.6912,-3.6915,-3.6918,0,0,0,0,0,0,0,0,0,0,0,0,0,-3.7011,-3.7001,-3.7069,-3.7006,-3.7,-3.7054,-3.7053,-3.7053,-3.6933,-3.6929,-3.6924,-3.692,-3.6911,-3.6914,-3.6918,-3.7031,0,0,-3.6929,-3.6931,0,0,0,0,0,0,0,0,-3.701,-3.7013,-3.7016,-3.7011,-3.7004,-3.699,-3.7024,-3.7046,-3.6935,-3.6959,-3.6923,-3.6918,-3.6942,-3.6943,-3.695,-3.7031,-3.703,-3.693,-3.6932,-3.6934,-3.6935,0,0,0,0,0,0,0,-3.7009,-3.7013,-3.7063,-3.7016,-3.7009,-3.6981,-3.6977,-3.7028,-3.6976,-3.6957,-3.6948,-3.6947,-3.6938,-3.6947,-3.6949,-3.703,-3.693,-3.6933,-3.6935,-3.6937,-3.7207,-3.7212,0,0,0,0,0,0,-3.7017,-3.7013,-3.7063,-3.7062,-3.6996,-3.6986,-3.6982,-3.6999,-3.6975,-3.6967,-3.6951,-3.6942,-3.6943,-3.6945,-3.6948,-3.7082,-3.6934,-3.6937,-3.6939,-3.7202,-3.7208,-3.7213,0,0,0,0,0,0,-3.7015,-3.7022,-3.7064,-3.7035,-3.7039,-3.6992,-3.7012,-3.7001,-3.701,-3.6971,-3.6962,-3.6969,-3.6939,-3.6943,-3.7012,-3.708,-3.6939,-3.6942,-3.7196,-3.7204,-3.7211,-3.735,0,0,0,0,0,0,-3.7014,-3.7022,-3.7064,-3.7037,-3.7041,-3.7127,-3.7016,-3.7004,-3.7016,-3.7004,-3.6986,-3.6978,-3.6936,-3.7007,-3.7016,-3.7083,-3.6945,-3.719,-3.72,-3.7208,-3.7339,-3.7361,-3.738,0,0,0,0,0,-3.7012,-3.7104,-3.7066,-3.7073,-3.7091,-3.7131,-3.7133,-3.7081,-3.7022,-3.7064,-3.704,-3.6979,-3.7071,-3.7015,-3.7024,-3.7093,-3.7186,-3.7197,-3.7208,-3.733,-3.7357,-3.7379,0,0,0,0,0,0,-3.714,-3.7099,-3.7057,-3.7143,-3.7141,-3.711,-3.7162,-3.711,-3.7126,-3.7114,-3.705,-3.7047,-3.7127,-3.7116,-3.7055,-3.7203,-3.7118,-3.7131,-3.7208,-3.7233,-3.7253,-3.7255,-3.6948,0,0,0,0,0,-3.7178,-3.7212,-3.7175,-3.7254,-3.7255,-3.7209,-3.7224,-3.7185,-3.7181,-3.718,-3.716,-3.7161,-3.719,-3.721,-3.7234,-3.7336,-3.7333,-3.7388,-3.7409,-3.7426,-3.7439,-3.7495,-3.7521,-3.725,-3.725,-3.7249,0,0,-3.7258,-3.7239,-3.7265,-3.728,-3.7274,-3.7313,-3.7209,-3.7254,-3.7284,-3.7187,-3.7252,-3.7238,-3.7234,-3.7321,-3.7358,-3.7314,-3.7513,-3.744,-3.7454,-3.7457,-3.7509,-3.7535,-3.7558,-3.7257,-3.7256,-3.7255,0,0,-3.7423,-3.7411,-3.7477,-3.7473,-3.7465,-3.7434,-3.7451,-3.7428,-3.7415,-3.7478,-3.7408,-3.7442,-3.7492,-3.7494,-3.7501,-3.7669,-3.7615,-3.7679,-3.7787,-3.7842,-3.7864,-3.7883,-3.7946,-3.7969,-3.7691,-3.7692,-3.7692,0,-3.7523,-3.7577,-3.7518,-3.7568,-3.7578,-3.7492,-3.756,-3.756,-3.7561,-3.7571,-3.7522,-3.7585,-3.7576,-3.7664,-3.7705,-3.7713,-3.7732,-3.7681,-3.7865,-3.7883,-3.79,-3.796,-3.7983,-3.77,-3.7699,-3.7698,-3.7697,0,-3.7702,-3.7742,-3.7796,-3.7799,-3.7815,-3.7874,-3.7826,-3.785,-3.7809,-3.7784,-3.7852,-3.7838,-3.786,-3.7877,-3.7838,-3.796,-3.7934,-3.7876,-3.7789,-3.7935,-3.799,-3.8012,-3.7711,-3.7708,-3.7706,-3.7704,0,0,-3.7948,-3.7918,-3.794,-3.7941,-3.7927,-3.7957,-3.8014,-3.8034,-3.8057,-3.8061,-3.8109,-3.8155,-3.8102,-3.811,-3.807,-3.8119,-3.8258,-3.8055,-3.8054,-3.8096,-3.8396,-3.8442,-3.8469,-3.8221,-3.8225,-3.8228,-3.8398,0,-3.8109,-3.8203,-3.8152,-3.8253,-3.8291,-3.821,-3.826,-3.8258,-3.8237,-3.8267,-3.8243,-3.8278,-3.8203,-3.8209,-3.8253,-3.8231,-3.8318,-3.8218,-3.8268,-3.8271,-3.8274,-3.8497,-3.8545,-3.8706,-3.8418,-3.8422,-3.8424,0,-3.8309,-3.8322,-3.8428,-3.8409,-3.8423,-3.8468,-3.8484,-3.8513,-3.851,-3.8492,-3.8502,-3.8452,-3.8508,-3.8421,-3.8501,-3.8434,-3.8452,-3.8445,-3.845,-3.8454,-3.8358,-3.8512,-3.8756,-3.8781,-3.8457,-3.8455,-3.8452,0,-3.8482,-3.8526,-3.8595,-3.8598,-3.8577,-3.8612,-3.8605,-3.8598,-3.8614,-3.8629,-3.8639,-3.8661,-3.8673,-3.8692,-3.865,-3.8589,-3.8737,-3.8645,-3.8726,-3.8727,-3.8762,-3.8761,-3.9016,-3.8769,-3.8768,-3.8768,-3.8767,0,-3.8669,-3.8738,-3.8673,-3.8716,-3.8791,-3.8733,-3.881,-3.8794,-3.8789,-3.883,-3.8761,-3.8801,-3.8741,-3.8776,-3.8743,-3.8816,-3.8822,-3.881,-3.8802,-3.8818,-3.882,-3.8831,-3.882,-3.8774,-3.8773,-3.8772,-3.8771,0,-3.8875,-3.8834,-3.8905,-3.888,-3.8875,-3.8932,-3.8911,-3.8952,-3.8925,-3.8978,-3.8987,-3.8948,-3.8985,-3.8944,-3.8979,-3.8957,-3.9057,-3.903,-3.9058,-3.9051,-3.9136,-3.913,-3.9408,-3.9444,-3.9172,-3.9174,-3.9176,0,-3.8998,-3.9049,-3.903,-3.9052,-3.9049,-3.9084,-3.9101,-3.9046,-3.9067,-3.9069,-3.911,-3.9142,-3.9165,-3.9229,-3.9205,-3.9233,-3.9208,-3.9304,-3.9212,-3.9228,-3.9213,-3.9212,-3.9219,-3.9323,-3.9327,-3.9329,-3.9331,0,-3.9223,-3.92,-3.9226,-3.9246,-3.9267,-3.928,-3.9288,-3.931,-3.9254,-3.9281,-3.9318,-3.9336,-3.9372,-3.9406,-3.9427,-3.9422,-3.937,-3.936,-3.9381,-3.94,-3.9416,-3.9412,-3.9112,-3.9355,-3.9352,-3.9351,-3.9349,-3.9348,-3.9393,-3.9436,-3.943,-3.9461,-3.9461,-3.9471,-3.9509,-3.9488,-3.9517,-3.9542,-3.9508,-3.9556,-3.9555,-3.9576,-3.9578,-3.9617,-3.9576,-3.9605,-3.9613,-3.9622,-3.9636,-3.9407,-3.962,-3.9619,-3.9618,-3.9618,-3.9617,0,-3.9617,-3.9609,-3.9638,-3.9652,-3.9678,-3.9624,-3.9631,-3.9657,-3.9699,-3.9702,-3.9726,-3.9771,-3.9804,-3.9783,-3.9811,-3.9847,-3.9824,-3.9856,-3.9855,-3.9855,-3.9669,-3.965,-3.9875,-3.9875,-3.9875,-3.9875,-3.9875,-3.9875,-3.9736,-3.9806,-3.9784,-3.9855,-3.9847,-3.9892,-3.9901,-3.9911,-3.9913,-3.9966,-3.9993,-3.9978,-3.9973,-4.0001,-4.003,-4.0023,-4.0039,-4.0081,-4.0066,-3.9893,-3.9868,-3.9844,-3.9826,-4.0084,-4.0084,-4.0249,-4.0251,-4.0252]},{"header":{"parameterUnit":"m.s-1","parameterCategory":1,"la1":30.2991,"la2":30.254,"lo1":-89.0895,"lo2":-89.0444,"dy":0.0017,"dx":0.0017,"nx":28,"ny":28,"refTime":"2023-09-29T09:00:00:Z","depth":0,"parameterNumber":3,"parameterNumberName":"V-component_of_WINDS"},"data":[0,0,0,0,0,0,0,0,0,0,0,0,0,0,0,0,0,0,0,0,0,0,0,0,0,0,0,0,0,0,0,0,0,0,0,0,0,0,0,0,0,0,0,0,0,0,0,0,0,0,0,0,0,0,0,0,0,0,-0.2657,-0.2657,0,-0.2671,-0.2672,-0.2672,-0.2651,-0.265,-0.2649,-0.2648,-0.2665,-0.2666,-0.2667,0,0,0,0,0,0,0,0,0,0,0,0,0,-0.261,-0.2611,-0.2657,-0.2657,-0.2657,-0.2671,-0.2672,-0.2672,-0.2651,-0.265,-0.2649,-0.2648,-0.2664,-0.2666,-0.2667,0,0,0,0,0,0,0,0,0,0,0,0,0,-0.2628,-0.2612,-0.2657,-0.2648,-0.2648,-0.2671,-0.2672,-0.2672,-0.2651,-0.265,-0.2649,-0.2648,-0.2664,-0.2665,-0.2667,-0.27,0,0,-0.2672,-0.2673,0,0,0,0,0,0,0,0,-0.2627,-0.263,-0.2649,-0.2649,-0.2648,-0.2658,-0.2661,-0.2681,-0.2651,-0.265,-0.2648,-0.2647,-0.2663,-0.2665,-0.267,-0.2701,-0.2702,-0.2673,-0.2674,-0.2674,-0.2675,0,0,0,0,0,0,0,-0.2626,-0.2629,-0.2662,-0.265,-0.2649,-0.2644,-0.2645,-0.2665,-0.2663,-0.265,-0.2648,-0.265,-0.2663,-0.2669,-0.2671,-0.2702,-0.2672,-0.2674,-0.2675,-0.2676,-0.276,-0.2762,0,0,0,0,0,0,-0.2626,-0.2629,-0.2662,-0.2663,-0.2635,-0.2646,-0.2647,-0.2656,-0.2662,-0.2662,-0.2651,-0.2649,-0.2666,-0.2669,-0.2671,-0.2711,-0.2674,-0.2676,-0.2677,-0.2759,-0.2761,-0.2762,0,0,0,0,0,0,-0.2625,-0.2629,-0.2661,-0.2645,-0.2649,-0.2647,-0.2658,-0.2657,-0.2663,-0.2663,-0.2663,-0.2658,-0.2666,-0.2669,-0.2693,-0.2711,-0.2677,-0.2678,-0.2758,-0.276,-0.2761,-0.2791,0,0,0,0,0,0,-0.2624,-0.2629,-0.2642,-0.2646,-0.265,-0.2683,-0.2659,-0.2658,-0.2666,-0.2663,-0.2669,-0.2669,-0.2665,-0.2691,-0.2695,-0.2713,-0.2679,-0.2756,-0.2759,-0.2761,-0.2788,-0.2793,-0.2798,0,0,0,0,0,-0.2622,-0.2649,-0.2642,-0.2646,-0.2666,-0.2684,-0.2687,-0.2681,-0.2667,-0.268,-0.268,-0.2669,-0.2708,-0.2693,-0.2698,-0.2717,-0.2755,-0.2758,-0.2761,-0.2786,-0.2792,-0.2798,0,0,0,0,0,0,-0.2648,-0.265,-0.2642,-0.2671,-0.2678,-0.2681,-0.2697,-0.2688,-0.2699,-0.2696,-0.2688,-0.269,-0.2716,-0.2718,-0.2702,-0.2749,-0.2729,-0.2733,-0.2747,-0.2753,-0.2758,-0.2758,-0.2681,0,0,0,0,0,-0.2657,-0.2672,-0.2672,-0.2698,-0.2702,-0.2699,-0.2707,-0.2701,-0.2708,-0.2711,-0.2713,-0.272,-0.2734,-0.2743,-0.2756,-0.2787,-0.2789,-0.2802,-0.2807,-0.2811,-0.2815,-0.2833,-0.2839,-0.2771,-0.2771,-0.2771,0,0,-0.2676,-0.2679,-0.2689,-0.2703,-0.2708,-0.2724,-0.2701,-0.2719,-0.2731,-0.2713,-0.2737,-0.2738,-0.2746,-0.2774,-0.2787,-0.2777,-0.2834,-0.2815,-0.2818,-0.282,-0.2837,-0.2843,-0.2849,-0.2773,-0.2773,-0.2772,0,0,-0.2719,-0.2722,-0.2745,-0.2749,-0.2756,-0.2753,-0.2758,-0.2762,-0.2763,-0.2786,-0.2773,-0.2787,-0.2811,-0.2817,-0.2823,-0.2866,-0.2857,-0.2871,-0.2897,-0.2914,-0.2919,-0.2924,-0.2941,-0.2947,-0.2874,-0.2874,-0.2874,0,-0.2743,-0.2766,-0.2757,-0.2776,-0.2783,-0.2767,-0.2789,-0.2794,-0.2805,-0.281,-0.2798,-0.2828,-0.2831,-0.2861,-0.2872,-0.2877,-0.2883,-0.2871,-0.2919,-0.2924,-0.2928,-0.2945,-0.2951,-0.2876,-0.2876,-0.2876,-0.2875,0,-0.2795,-0.2811,-0.2828,-0.2839,-0.2847,-0.2868,-0.2862,-0.2872,-0.2865,-0.2864,-0.2888,-0.2891,-0.2904,-0.291,-0.2904,-0.2939,-0.2933,-0.292,-0.2901,-0.2937,-0.2952,-0.2958,-0.2878,-0.2878,-0.2877,-0.2877,0,0,-0.2857,-0.2861,-0.2868,-0.2873,-0.2878,-0.2891,-0.291,-0.2922,-0.2932,-0.2939,-0.2956,-0.2975,-0.2963,-0.297,-0.2964,-0.2979,-0.3015,-0.2964,-0.2964,-0.2975,-0.3055,-0.3067,-0.3074,-0.3007,-0.3009,-0.3009,-0.3055,0,-0.2902,-0.2936,-0.2928,-0.2962,-0.2977,-0.2961,-0.2978,-0.2983,-0.2982,-0.2995,-0.2993,-0.3008,-0.299,-0.2994,-0.3008,-0.3008,-0.3031,-0.3004,-0.3024,-0.3025,-0.3026,-0.3082,-0.3094,-0.3138,-0.3061,-0.3062,-0.3063,0,-0.2959,-0.2969,-0.3004,-0.3007,-0.3013,-0.3028,-0.3039,-0.3051,-0.3056,-0.3054,-0.3061,-0.3052,-0.3071,-0.3049,-0.3077,-0.3058,-0.3066,-0.3066,-0.3068,-0.3072,-0.3048,-0.3089,-0.3151,-0.3159,-0.3072,-0.3071,-0.307,0,-0.3004,-0.3025,-0.3049,-0.3053,-0.3056,-0.3068,-0.307,-0.3074,-0.3082,-0.309,-0.3096,-0.3107,-0.3113,-0.3122,-0.3116,-0.31,-0.3145,-0.3122,-0.3145,-0.3145,-0.3157,-0.3157,-0.3223,-0.3158,-0.3158,-0.3158,-0.3157,0,-0.3056,-0.3079,-0.3069,-0.3084,-0.3109,-0.3099,-0.3124,-0.3124,-0.3127,-0.3142,-0.3127,-0.3142,-0.3132,-0.3145,-0.314,-0.3164,-0.3167,-0.3166,-0.3165,-0.3169,-0.317,-0.3176,-0.3174,-0.3159,-0.3159,-0.3159,-0.3158,0,-0.3112,-0.3106,-0.3131,-0.3132,-0.3132,-0.3151,-0.3151,-0.3165,-0.3162,-0.3181,-0.3185,-0.318,-0.3195,-0.3189,-0.3204,-0.3201,-0.3232,-0.3226,-0.3231,-0.323,-0.3254,-0.3253,-0.3329,-0.3339,-0.3265,-0.3266,-0.3266,0,-0.3147,-0.3164,-0.3166,-0.3175,-0.3178,-0.3192,-0.32,-0.319,-0.3198,-0.3205,-0.3219,-0.3232,-0.3243,-0.3267,-0.3265,-0.3277,-0.3273,-0.3298,-0.3274,-0.3278,-0.3275,-0.3276,-0.3278,-0.3304,-0.3305,-0.3306,-0.3306,0,-0.3211,-0.3207,-0.3218,-0.3229,-0.3239,-0.3246,-0.3253,-0.3261,-0.3251,-0.3262,-0.3277,-0.3285,-0.33,-0.3314,-0.3325,-0.3326,-0.3316,-0.3313,-0.3319,-0.3325,-0.3328,-0.3329,-0.3247,-0.3312,-0.3312,-0.3311,-0.3311,-0.3311,-0.3259,-0.3273,-0.3277,-0.3291,-0.3294,-0.33,-0.3314,-0.3312,-0.3324,-0.3336,-0.3329,-0.3346,-0.335,-0.3363,-0.3366,-0.338,-0.337,-0.3379,-0.3382,-0.3385,-0.3389,-0.3323,-0.3382,-0.3381,-0.3381,-0.3381,-0.3381,0,-0.3323,-0.3325,-0.3337,-0.3347,-0.3357,-0.3344,-0.335,-0.336,-0.3376,-0.338,-0.3391,-0.3408,-0.3421,-0.3419,-0.3431,-0.3442,-0.3438,-0.3446,-0.3447,-0.3448,-0.3396,-0.339,-0.345,-0.345,-0.345,-0.345,-0.345,-0.345,-0.3359,-0.3383,-0.3379,-0.3405,-0.3406,-0.3423,-0.3428,-0.3434,-0.3437,-0.3457,-0.3468,-0.3466,-0.3468,-0.348,-0.3492,-0.3491,-0.3497,-0.3508,-0.3505,-0.3458,-0.3451,-0.3445,-0.344,-0.3509,-0.3509,-0.3556,-0.3557,-0.3557]}]]